When you browse on this site, cookies collect data to enhance your experience and personalize the content and advertising you see.
Visit our Privacy Policy to learn more. By continuing to use the site, you agree to this use of cookies and data.
  • In Österreich
  • Länderverzeichnis
  • Für 7 Tage
  • Wassertemperatur
  • Wetterkarte
  • News
  • Widgets
  • user-avatar
    Anmelden

    Stündliche Wetter Summit

    Heute, 5 Juni, Freitag

    Zeit Temperatur Niederschläge Wind Luftdruck Luftfeuchtigkeit
    00:00 +23°C° 4.4 mm 2 m/S 753 mmHg 83%
    01:00 +23°C° 4.4 mm 2 m/S 753 mmHg 87%
    02:00 +23°C° 0.2 mm 2 m/S 752 mmHg 86%
    03:00 +23°C° 0.2 mm 2 m/S 752 mmHg 85%
    04:00 +23°C° 0.2 mm 2 m/S 752 mmHg 84%
    05:00 +23°C° 0 mm 2 m/S 752 mmHg 85%
    06:00 +23°C° 0 mm 2 m/S 752 mmHg 85%
    07:00 +23°C° 0 mm 2 m/S 753 mmHg 86%
    08:00 +23°C° 0.2 mm 2 m/S 753 mmHg 85%
    09:00 +24°C° 0.2 mm 2 m/S 753 mmHg 85%
    10:00 +24°C° 0.2 mm 3 m/S 753 mmHg 84%
    11:00 +24°C° 0.4 mm 2 m/S 753 mmHg 83%
    12:00 +24°C° 0.4 mm 2 m/S 753 mmHg 81%
    13:00 +25°C° 0.4 mm 2 m/S 753 mmHg 79%
    14:00 +24°C° 1.1 mm 2 m/S 752 mmHg 81%
    15:00 +23°C° 1.1 mm 1 m/S 752 mmHg 84%
    16:00 +23°C° 1.1 mm 1 m/S 751 mmHg 87%
    17:00 +23°C° 1 mm 1 m/S 751 mmHg 88%
    18:00 +22°C° 1 mm 1 m/S 752 mmHg 90%
    19:00 +22°C° 1 mm 1 m/S 752 mmHg 91%
    20:00 +20°C° 0.5 mm 0 m/S 752 mmHg 92%
    21:00 +20°C° 0.5 mm 0 m/S 751 mmHg 93%
    22:00 +20°C° 0.5 mm 0 m/S 751 mmHg 94%
    23:00 +20°C° 0.5 mm 0 m/S 751 mmHg 94%

    Morgen, 6 Juni, Samstag

    Zeit Temperatur Niederschläge Wind Luftdruck Luftfeuchtigkeit
    00:00 +20°C° 0.5 mm 0 m/S 751 mmHg 95%
    01:00 +20°C° 0.5 mm 0 m/S 750 mmHg 95%
    02:00 +19°C° 0 mm 0 m/S 750 mmHg 95%
    03:00 +21°C° 0 mm 1 m/S 750 mmHg 96%
    04:00 +21°C° 0 mm 1 m/S 750 mmHg 96%
    05:00 +22°C° 0 mm 1 m/S 750 mmHg 91%
    06:00 +23°C° 0 mm 1 m/S 750 mmHg 87%
    07:00 +23°C° 0 mm 2 m/S 750 mmHg 83%
    08:00 +26°C° 0 mm 2 m/S 750 mmHg 73%
    09:00 +28°C° 0 mm 2 m/S 749 mmHg 64%
    10:00 +30°C° 0 mm 3 m/S 749 mmHg 54%
    11:00 +31°C° 0 mm 3 m/S 749 mmHg 52%
    12:00 +33°C° 0 mm 4 m/S 748 mmHg 49%
    13:00 +33°C° 0 mm 4 m/S 748 mmHg 46%
    14:00 +33°C° 0.1 mm 5 m/S 748 mmHg 47%
    15:00 +32°C° 0.1 mm 5 m/S 748 mmHg 48%
    16:00 +30°C° 0.1 mm 5 m/S 748 mmHg 49%
    17:00 +29°C° 0 mm 5 m/S 748 mmHg 47%
    18:00 +28°C° 0 mm 5 m/S 748 mmHg 45%
    19:00 +26°C° 0 mm 5 m/S 749 mmHg 44%
    20:00 +25°C° 0 mm 5 m/S 749 mmHg 45%
    21:00 +23°C° 0 mm 5 m/S 749 mmHg 46%
    22:00 +21°C° 0 mm 4 m/S 750 mmHg 48%
    23:00 +21°C° 0 mm 4 m/S 750 mmHg 52%

    übermorgen, 7 Juni, Sonntag

    Zeit Temperatur Niederschläge Wind Luftdruck Luftfeuchtigkeit
    00:00 +20°C° 0 mm 4 m/S 750 mmHg 56%
    01:00 +19°C° 0 mm 3 m/S 750 mmHg 59%
    02:00 +18°C° 0 mm 4 m/S 750 mmHg 62%
    03:00 +18°C° 0 mm 4 m/S 750 mmHg 65%
    04:00 +17°C° 0 mm 4 m/S 750 mmHg 68%
    05:00 +18°C° 0 mm 4 m/S 751 mmHg 64%
    06:00 +18°C° 0 mm 4 m/S 751 mmHg 61%
    07:00 +19°C° 0 mm 4 m/S 751 mmHg 58%
    08:00 +20°C° 0 mm 5 m/S 752 mmHg 51%
    09:00 +22°C° 0 mm 5 m/S 752 mmHg 45%
    10:00 +23°C° 0 mm 5 m/S 752 mmHg 38%
    11:00 +25°C° 0 mm 5 m/S 752 mmHg 36%
    12:00 +26°C° 0 mm 5 m/S 752 mmHg 34%
    13:00 +26°C° 0 mm 4 m/S 752 mmHg 33%
    14:00 +26°C° 0 mm 4 m/S 752 mmHg 33%
    15:00 +26°C° 0 mm 4 m/S 752 mmHg 34%
    16:00 +26°C° 0 mm 4 m/S 752 mmHg 34%
    17:00 +25°C° 0 mm 4 m/S 753 mmHg 39%
    18:00 +23°C° 0 mm 4 m/S 753 mmHg 43%
    19:00 +22°C° 0 mm 4 m/S 754 mmHg 47%
    20:00 +21°C° 0 mm 4 m/S 754 mmHg 49%
    21:00 +20°C° 0 mm 4 m/S 755 mmHg 51%
    22:00 +19°C° 0 mm 4 m/S 755 mmHg 53%
    23:00 +18°C° 0 mm 3 m/S 755 mmHg 54%

    8 Juni, Montag

    Zeit Temperatur Niederschläge Wind Luftdruck Luftfeuchtigkeit
    00:00 +18°C° 0 mm 3 m/S 756 mmHg 55%
    01:00 +17°C° 0 mm 2 m/S 756 mmHg 56%
    02:00 +17°C° 0 mm 2 m/S 756 mmHg 57%
    03:00 +16°C° 0 mm 2 m/S 756 mmHg 59%
    04:00 +16°C° 0 mm 2 m/S 756 mmHg 60%
    05:00 +17°C° 0 mm 2 m/S 757 mmHg 57%
    06:00 +18°C° 0 mm 2 m/S 757 mmHg 54%
    07:00 +18°C° 0 mm 2 m/S 758 mmHg 52%
    08:00 +20°C° 0 mm 2 m/S 758 mmHg 46%
    09:00 +23°C° 0 mm 2 m/S 758 mmHg 41%
    10:00 +25°C° 0 mm 1 m/S 758 mmHg 36%
    11:00 +26°C° 0 mm 1 m/S 758 mmHg 33%
    12:00 +27°C° 0 mm 1 m/S 758 mmHg 30%
    13:00 +28°C° 0 mm 1 m/S 757 mmHg 27%
    14:00 +28°C° 0 mm 2 m/S 757 mmHg 28%
    15:00 +28°C° 0 mm 2 m/S 757 mmHg 29%
    16:00 +28°C° 0 mm 2 m/S 757 mmHg 30%
    17:00 +26°C° 0 mm 2 m/S 757 mmHg 36%
    18:00 +25°C° 0 mm 2 m/S 757 mmHg 42%
    19:00 +24°C° 0 mm 1 m/S 757 mmHg 48%
    20:00 +23°C° 0 mm 2 m/S 757 mmHg 51%
    21:00 +21°C° 0 mm 2 m/S 758 mmHg 54%
    22:00 +20°C° 0 mm 2 m/S 758 mmHg 58%
    23:00 +19°C° 0 mm 2 m/S 758 mmHg 60%

    9 Juni, Dienstag

    Zeit Temperatur Niederschläge Wind Luftdruck Luftfeuchtigkeit
    00:00 +19°C° 0 mm 2 m/S 758 mmHg 63%
    01:00 +19°C° 0 mm 1 m/S 758 mmHg 65%
    02:00 +19°C° 0 mm 1 m/S 758 mmHg 67%
    03:00 +19°C° 0 mm 1 m/S 758 mmHg 68%
    04:00 +18°C° 0 mm 1 m/S 759 mmHg 70%
    05:00 +20°C° 0 mm 1 m/S 759 mmHg 65%
    06:00 +21°C° 0 mm 1 m/S 759 mmHg 61%
    07:00 +22°C° 0 mm 1 m/S 759 mmHg 56%
    08:00 +24°C° 0 mm 1 m/S 759 mmHg 50%
    09:00 +26°C° 0 mm 1 m/S 759 mmHg 44%
    10:00 +28°C° 0 mm 1 m/S 759 mmHg 38%
    11:00 +29°C° 0 mm 2 m/S 759 mmHg 37%
    12:00 +30°C° 0 mm 2 m/S 759 mmHg 35%
    13:00 +31°C° 0 mm 2 m/S 758 mmHg 34%
    14:00 +30°C° 0 mm 3 m/S 758 mmHg 35%
    15:00 +30°C° 0 mm 3 m/S 758 mmHg 36%
    16:00 +30°C° 0 mm 3 m/S 758 mmHg 37%
    17:00 +29°C° 0 mm 3 m/S 758 mmHg 42%
    18:00 +27°C° 0 mm 3 m/S 758 mmHg 48%
    19:00 +26°C° 0 mm 3 m/S 758 mmHg 53%
    20:00 +25°C° 0 mm 3 m/S 759 mmHg 54%
    21:00 +24°C° 0 mm 3 m/S 759 mmHg 56%
    22:00 +22°C° 0 mm 3 m/S 760 mmHg 57%
    23:00 +21°C° 0 mm 3 m/S 759 mmHg 56%

    10 Juni, Mittwoch

    Zeit Temperatur Niederschläge Wind Luftdruck Luftfeuchtigkeit
    00:00 +20°C° 0 mm 3 m/S 759 mmHg 56%
    01:00 +20°C° 0 mm 3 m/S 759 mmHg 55%
    02:00 +19°C° 0 mm 2 m/S 759 mmHg 57%
    03:00 +19°C° 0 mm 2 m/S 759 mmHg 59%
    04:00 +18°C° 0 mm 2 m/S 759 mmHg 60%
    05:00 +19°C° 0 mm 2 m/S 760 mmHg 59%
    06:00 +20°C° 0 mm 2 m/S 760 mmHg 57%
    07:00 +21°C° 0 mm 2 m/S 760 mmHg 56%
    08:00 +23°C° 0 mm 2 m/S 760 mmHg 50%
    09:00 +25°C° 0 mm 3 m/S 760 mmHg 45%
    10:00 +26°C° 0 mm 3 m/S 760 mmHg 40%
    11:00 +27°C° 0 mm 4 m/S 760 mmHg 39%
    12:00 +28°C° 0 mm 4 m/S 759 mmHg 38%
    13:00 +28°C° 0 mm 5 m/S 759 mmHg 38%
    14:00 +28°C° 0 mm 5 m/S 759 mmHg 39%
    15:00 +28°C° 0 mm 5 m/S 759 mmHg 39%
    16:00 +27°C° 0 mm 5 m/S 759 mmHg 40%
    17:00 +26°C° 0 mm 5 m/S 759 mmHg 46%
    18:00 +23°C° 0 mm 5 m/S 759 mmHg 51%
    19:00 +22°C° 0 mm 4 m/S 759 mmHg 57%
    20:00 +21°C° 0 mm 4 m/S 759 mmHg 60%
    21:00 +20°C° 0 mm 4 m/S 760 mmHg 63%
    22:00 +20°C° 0 mm 3 m/S 760 mmHg 67%
    23:00 +19°C° 0 mm 3 m/S 760 mmHg 70%
    Mehr zeigen